ARG1817 SAVE-SABE

Flight info

Callsign ARG1817
Flight time 1h 46m
Altitude FL390
Route ESQ UT657 BCA UW22 VALOS VALO9Q
Aircraft B38M/M-SDE2E3FGHIRWXY/LB1

Departure

Time 2026-04-26 14:20
Airport Esquel Brigadier Antonio Parodi International Airport (SAVE)

Arrival

Time 2026-04-26 16:06
Airport Aeroparque Jorge Newbery (SABE)
Time Latitude Longitude Altitude Speed Heading
2026-04-26 14:00 -42.90668 -71.14678 2639 ft 0 kts 327°
2026-04-26 14:12 -42.90673 -71.14674 2666 ft 4 kts 322°
2026-04-26 14:13 -42.90680 -71.14616 2639 ft 4 kts 235°
2026-04-26 14:13 -42.90663 -71.14589 2639 ft 4 kts 222°
2026-04-26 14:13 -42.90659 -71.14584 2639 ft 2 kts 221°
2026-04-26 14:17 -42.90689 -71.14598 2639 ft 5 kts 178°
2026-04-26 14:17 -42.90737 -71.14573 2639 ft 9 kts 168°
2026-04-26 14:17 -42.90792 -71.14593 2639 ft 9 kts 204°
2026-04-26 14:18 -42.90849 -71.14628 2640 ft 10 kts 204°
2026-04-26 14:18 -42.90912 -71.14673 2639 ft 11 kts 221°
2026-04-26 14:18 -42.90947 -71.14757 2639 ft 2 kts 242°
2026-04-26 14:18 -42.90953 -71.14757 2639 ft 1 kts 159°
2026-04-26 14:19 -42.90940 -71.14729 2639 ft 9 kts 56°
2026-04-26 14:19 -42.90927 -71.14702 2639 ft 7 kts 57°
2026-04-26 14:19 -42.90754 -71.14337 2639 ft 84 kts 57°
2026-04-26 14:19 -42.90311 -71.13413 2641 ft 147 kts 56°
2026-04-26 14:20 -42.89689 -71.12125 3030 ft 161 kts 56°
2026-04-26 14:20 -42.89052 -71.10768 3614 ft 174 kts 58°
2026-04-26 14:20 -42.88451 -71.09348 4547 ft 177 kts 62°
2026-04-26 14:20 -42.87834 -71.07797 5019 ft 196 kts 62°
2026-04-26 14:21 -42.87151 -71.06084 5451 ft 216 kts 63°
2026-04-26 14:21 -42.86390 -71.04185 5863 ft 243 kts 62°
2026-04-26 14:21 -42.85547 -71.02088 6629 ft 254 kts 63°
2026-04-26 14:21 -42.84694 -70.99962 7599 ft 259 kts 64°
2026-04-26 14:22 -42.83803 -70.97748 8295 ft 276 kts 64°
2026-04-26 14:22 -42.82852 -70.95391 8952 ft 291 kts 65°
2026-04-26 14:22 -42.81877 -70.92976 9957 ft 293 kts 66°
2026-04-26 14:22 -42.80877 -70.90499 10639 ft 308 kts 66°
2026-04-26 14:23 -42.79812 -70.87865 11069 ft 328 kts 66°
2026-04-26 14:23 -42.78685 -70.85080 11604 ft 344 kts 66°
2026-04-26 14:23 -42.77511 -70.82184 12239 ft 355 kts 66°
2026-04-26 14:23 -42.76315 -70.79231 13093 ft 360 kts 67°
2026-04-26 14:24 -42.75093 -70.76223 13808 ft 368 kts 67°
2026-04-26 14:24 -42.73850 -70.73164 14537 ft 373 kts 67°
2026-04-26 14:24 -42.72591 -70.70072 15210 ft 377 kts 67°
2026-04-26 14:24 -42.71315 -70.66938 15885 ft 382 kts 67°
2026-04-26 14:25 -42.70023 -70.63768 16542 ft 386 kts 67°
2026-04-26 14:25 -42.68713 -70.60559 17192 ft 392 kts 67°
2026-04-26 14:25 -42.67386 -70.57310 17827 ft 396 kts 67°
2026-04-26 14:25 -42.66042 -70.54026 18482 ft 401 kts 67°
2026-04-26 14:26 -42.64683 -70.50703 19030 ft 405 kts 67°
2026-04-26 14:26 -42.63309 -70.47354 19589 ft 409 kts 67°
2026-04-26 14:26 -42.61922 -70.43972 20132 ft 412 kts 67°
2026-04-26 14:26 -42.60522 -70.40566 20655 ft 416 kts 67°
2026-04-26 14:27 -42.59109 -70.37130 21216 ft 420 kts 67°
2026-04-26 14:27 -42.57680 -70.33661 21728 ft 424 kts 67°
2026-04-26 14:27 -42.56241 -70.30170 22285 ft 427 kts 67°
2026-04-26 14:27 -42.54786 -70.26646 22806 ft 431 kts 67°
2026-04-26 14:28 -42.53319 -70.23097 23311 ft 434 kts 67°
2026-04-26 14:28 -42.51837 -70.19517 23820 ft 438 kts 68°
2026-04-26 14:28 -42.50344 -70.15912 24243 ft 441 kts 68°
2026-04-26 14:28 -42.48838 -70.12283 24667 ft 444 kts 68°
2026-04-26 14:29 -42.47322 -70.08633 25096 ft 447 kts 68°
2026-04-26 14:29 -42.45797 -70.04966 25503 ft 449 kts 68°
2026-04-26 14:29 -42.44260 -70.01274 25919 ft 452 kts 68°
2026-04-26 14:29 -42.42713 -69.97566 26315 ft 455 kts 68°
2026-04-26 14:30 -42.41156 -69.93836 26696 ft 458 kts 68°
2026-04-26 14:30 -42.39588 -69.90085 27094 ft 460 kts 68°
2026-04-26 14:30 -42.38011 -69.86316 27488 ft 462 kts 68°
2026-04-26 14:30 -42.36425 -69.82532 27862 ft 465 kts 68°
2026-04-26 14:31 -42.34827 -69.78724 28252 ft 468 kts 68°
2026-04-26 14:31 -42.33220 -69.74900 28627 ft 470 kts 68°
2026-04-26 14:31 -42.31604 -69.71059 28986 ft 473 kts 68°
2026-04-26 14:31 -42.29976 -69.67195 29317 ft 475 kts 68°
2026-04-26 14:32 -42.28338 -69.63312 29678 ft 478 kts 68°
2026-04-26 14:32 -42.26693 -69.59417 30030 ft 480 kts 68°
2026-04-26 14:32 -42.25039 -69.55505 30365 ft 482 kts 68°
2026-04-26 14:32 -42.23373 -69.51573 30661 ft 485 kts 68°
2026-04-26 14:33 -42.21697 -69.47620 30953 ft 487 kts 68°
2026-04-26 14:33 -42.20013 -69.43655 31235 ft 489 kts 67°
2026-04-26 14:33 -42.18322 -69.39676 31518 ft 491 kts 67°
2026-04-26 14:33 -42.16620 -69.35681 31799 ft 493 kts 67°
2026-04-26 14:34 -42.14910 -69.31670 32075 ft 496 kts 67°
2026-04-26 14:34 -42.13193 -69.27650 32349 ft 497 kts 67°
2026-04-26 14:34 -42.11466 -69.23607 32603 ft 500 kts 67°
2026-04-26 14:34 -42.09730 -69.19556 32855 ft 502 kts 67°
2026-04-26 14:35 -42.07988 -69.15490 33115 ft 504 kts 67°
2026-04-26 14:35 -42.06237 -69.11412 33384 ft 505 kts 67°
2026-04-26 14:35 -42.04483 -69.07333 33730 ft 504 kts 66°
2026-04-26 14:35 -42.02729 -69.03260 34083 ft 504 kts 66°
2026-04-26 14:36 -42.00979 -68.99198 34417 ft 503 kts 66°
2026-04-26 14:36 -41.99225 -68.95136 34685 ft 503 kts 66°
2026-04-26 14:36 -41.97474 -68.91084 34939 ft 503 kts 66°
2026-04-26 14:36 -41.95718 -68.87027 35192 ft 503 kts 66°
2026-04-26 14:37 -41.93960 -68.82969 35437 ft 504 kts 66°
2026-04-26 14:37 -41.92198 -68.78912 35685 ft 504 kts 66°
2026-04-26 14:37 -41.90436 -68.74857 35924 ft 505 kts 66°
2026-04-26 14:37 -41.88668 -68.70795 36155 ft 505 kts 66°
2026-04-26 14:38 -41.86900 -68.66737 36377 ft 506 kts 66°
2026-04-26 14:38 -41.85123 -68.62667 36596 ft 506 kts 66°
2026-04-26 14:38 -41.83346 -68.58599 36802 ft 507 kts 66°
2026-04-26 14:38 -41.81564 -68.54528 36991 ft 508 kts 66°
2026-04-26 14:39 -41.79780 -68.50453 37051 ft 509 kts 66°
2026-04-26 14:39 -41.76205 -68.42312 37030 ft 507 kts 66°
2026-04-26 14:40 -41.72629 -68.34190 37015 ft 508 kts 66°
2026-04-26 14:40 -41.69042 -68.26066 37015 ft 508 kts 66°
2026-04-26 14:41 -41.65446 -68.17939 37015 ft 509 kts 66°
2026-04-26 14:41 -41.61839 -68.09808 37002 ft 509 kts 66°
2026-04-26 14:42 -41.58231 -68.01694 36999 ft 509 kts 66°
2026-04-26 14:42 -41.54614 -67.93581 36993 ft 509 kts 66°
2026-04-26 14:43 -41.51003 -67.85472 36991 ft 509 kts 66°
2026-04-26 14:43 -41.47401 -67.77364 36981 ft 509 kts 66°
2026-04-26 14:44 -41.43792 -67.69260 36975 ft 509 kts 66°
2026-04-26 14:44 -41.40180 -67.61173 36975 ft 509 kts 66°
2026-04-26 14:45 -41.36563 -67.53094 36972 ft 509 kts 66°
2026-04-26 14:45 -41.32938 -67.45021 36964 ft 509 kts 66°
2026-04-26 14:46 -41.29304 -67.36948 36955 ft 510 kts 66°
2026-04-26 14:46 -41.25659 -67.28875 36953 ft 511 kts 66°
2026-04-26 14:47 -41.22002 -67.20794 36940 ft 512 kts 66°
2026-04-26 14:47 -41.18334 -67.12711 36930 ft 513 kts 66°
2026-04-26 14:48 -41.14649 -67.04613 36914 ft 514 kts 66°
2026-04-26 14:48 -41.10960 -66.96526 36901 ft 514 kts 66°
2026-04-26 14:49 -41.07263 -66.88444 36894 ft 514 kts 66°
2026-04-26 14:49 -41.03561 -66.80371 36883 ft 514 kts 65°
2026-04-26 14:50 -40.99810 -66.72329 36875 ft 514 kts 65°
2026-04-26 14:50 -40.96062 -66.64301 36870 ft 514 kts 65°
2026-04-26 14:51 -40.92312 -66.56287 37057 ft 512 kts 65°
2026-04-26 14:51 -40.90441 -66.52298 37193 ft 513 kts 65°
2026-04-26 14:51 -40.88563 -66.48296 37189 ft 514 kts 65°
2026-04-26 14:52 -40.84804 -66.40306 37178 ft 512 kts 65°
2026-04-26 14:52 -40.81043 -66.32331 37170 ft 513 kts 65°
2026-04-26 14:53 -40.77273 -66.24359 37167 ft 513 kts 65°
2026-04-26 14:53 -40.73494 -66.16387 37170 ft 514 kts 64°
2026-04-26 14:54 -40.69708 -66.08421 37171 ft 514 kts 64°
2026-04-26 14:54 -40.65908 -66.00448 37169 ft 515 kts 64°
2026-04-26 14:55 -40.62100 -65.92477 37162 ft 515 kts 64°
2026-04-26 14:55 -40.58287 -65.84517 37164 ft 515 kts 64°
2026-04-26 14:56 -40.54465 -65.76561 37154 ft 516 kts 64°
2026-04-26 14:56 -40.50635 -65.68605 37147 ft 516 kts 63°
2026-04-26 14:57 -40.46796 -65.60653 37157 ft 517 kts 63°
2026-04-26 14:57 -40.42953 -65.52711 37157 ft 517 kts 63°
2026-04-26 14:58 -40.39103 -65.44776 37144 ft 517 kts 63°
2026-04-26 14:58 -40.35247 -65.36850 37143 ft 517 kts 63°
2026-04-26 14:59 -40.31385 -65.28930 37135 ft 517 kts 62°
2026-04-26 14:59 -40.27517 -65.21018 37131 ft 517 kts 62°
2026-04-26 15:00 -40.23643 -65.13116 37125 ft 517 kts 62°
2026-04-26 15:00 -40.19767 -65.05227 37127 ft 517 kts 62°
2026-04-26 15:01 -40.15884 -64.97345 37120 ft 517 kts 62°
2026-04-26 15:01 -40.11993 -64.89461 37115 ft 517 kts 62°
2026-04-26 15:02 -40.08097 -64.81587 37110 ft 517 kts 61°
2026-04-26 15:02 -40.04216 -64.73713 37103 ft 516 kts 62°
2026-04-26 15:03 -40.00354 -64.65827 37094 ft 517 kts 61°
2026-04-26 15:03 -39.96487 -64.57951 37085 ft 517 kts 61°
2026-04-26 15:04 -39.92613 -64.50082 37086 ft 517 kts 61°
2026-04-26 15:04 -39.88739 -64.42234 37084 ft 516 kts 61°
2026-04-26 15:05 -39.84857 -64.34387 37069 ft 516 kts 60°
2026-04-26 15:05 -39.80971 -64.26553 37063 ft 516 kts 60°
2026-04-26 15:06 -39.77079 -64.18727 37056 ft 516 kts 60°
2026-04-26 15:06 -39.73182 -64.10909 37056 ft 517 kts 60°
2026-04-26 15:07 -39.67324 -63.99194 37048 ft 517 kts 60°
2026-04-26 15:07 -39.63409 -63.91390 37039 ft 517 kts 60°
2026-04-26 15:08 -39.59490 -63.83595 37032 ft 517 kts 59°
2026-04-26 15:08 -39.55566 -63.75811 37026 ft 517 kts 59°
2026-04-26 15:09 -39.51637 -63.68036 37027 ft 517 kts 59°
2026-04-26 15:09 -39.47701 -63.60265 37017 ft 517 kts 59°
2026-04-26 15:10 -39.44419 -63.53799 37013 ft 517 kts 59°
2026-04-26 15:10 -39.39816 -63.44751 37005 ft 517 kts 59°
2026-04-26 15:11 -39.35846 -63.37026 36999 ft 517 kts 58°
2026-04-26 15:11 -39.31860 -63.29331 36990 ft 517 kts 58°
2026-04-26 15:12 -39.27869 -63.21638 36989 ft 517 kts 58°
2026-04-26 15:12 -39.23875 -63.13956 36980 ft 516 kts 58°
2026-04-26 15:13 -39.19875 -63.06283 36975 ft 516 kts 58°
2026-04-26 15:13 -39.15874 -62.98625 36970 ft 516 kts 57°
2026-04-26 15:14 -39.11867 -62.90976 36968 ft 516 kts 57°
2026-04-26 15:14 -39.07853 -62.83330 36961 ft 516 kts 57°
2026-04-26 15:15 -39.03837 -62.75700 36960 ft 516 kts 57°
2026-04-26 15:15 -38.99819 -62.68084 36953 ft 516 kts 57°
2026-04-26 15:16 -38.95797 -62.60476 36951 ft 516 kts 56°
2026-04-26 15:16 -38.91770 -62.52879 36946 ft 516 kts 56°
2026-04-26 15:17 -38.88409 -62.46550 36938 ft 516 kts 56°
2026-04-26 15:17 -38.83697 -62.37700 36923 ft 516 kts 56°
2026-04-26 15:18 -38.79655 -62.30129 36916 ft 516 kts 56°
2026-04-26 15:18 -38.75606 -62.22555 36910 ft 516 kts 56°
2026-04-26 15:19 -38.71198 -62.15383 36885 ft 512 kts 37°
2026-04-26 15:19 -38.65493 -62.09977 36897 ft 513 kts 33°
2026-04-26 15:20 -38.59709 -62.04672 36916 ft 513 kts 33°
2026-04-26 15:20 -38.53904 -61.99412 36916 ft 513 kts 33°
2026-04-26 15:21 -38.48092 -61.94158 36920 ft 513 kts 32°
2026-04-26 15:21 -38.42274 -61.88910 36922 ft 513 kts 32°
2026-04-26 15:22 -38.36454 -61.83670 36922 ft 513 kts 32°
2026-04-26 15:22 -38.30629 -61.78437 36922 ft 514 kts 32°
2026-04-26 15:23 -38.24800 -61.73210 36916 ft 514 kts 32°
2026-04-26 15:23 -38.18965 -61.67989 36915 ft 514 kts 32°
2026-04-26 15:24 -38.13125 -61.62774 36914 ft 514 kts 31°
2026-04-26 15:24 -38.07284 -61.57567 36911 ft 515 kts 31°
2026-04-26 15:25 -38.02407 -61.53227 36913 ft 515 kts 31°
2026-04-26 15:25 -37.95569 -61.47158 36912 ft 515 kts 31°
2026-04-26 15:26 -37.89712 -61.41971 36913 ft 515 kts 31°
2026-04-26 15:26 -37.83846 -61.36788 36915 ft 515 kts 31°
2026-04-26 15:27 -37.77983 -61.31617 36911 ft 515 kts 30°
2026-04-26 15:27 -37.72114 -61.26450 36914 ft 515 kts 30°
2026-04-26 15:28 -37.66235 -61.21285 36917 ft 516 kts 30°
2026-04-26 15:28 -37.60355 -61.16130 36911 ft 516 kts 30°
2026-04-26 15:29 -37.54475 -61.10984 36916 ft 516 kts 30°
2026-04-26 15:30 -37.42695 -61.00705 36911 ft 516 kts 29°
2026-04-26 15:30 -37.36796 -60.95574 36907 ft 517 kts 29°
2026-04-26 15:31 -37.27932 -60.87880 36906 ft 518 kts 29°
2026-04-26 15:32 -37.20039 -60.81049 36903 ft 518 kts 29°
2026-04-26 15:32 -37.13118 -60.75074 36903 ft 519 kts 28°
2026-04-26 15:33 -37.07179 -60.69957 36903 ft 520 kts 28°
2026-04-26 15:33 -37.01229 -60.64840 36901 ft 520 kts 28°
2026-04-26 15:34 -36.95275 -60.59731 36902 ft 520 kts 28°
2026-04-26 15:34 -36.89310 -60.54621 36897 ft 521 kts 28°
2026-04-26 15:35 -36.83345 -60.49521 36900 ft 521 kts 28°
2026-04-26 15:35 -36.77372 -60.44422 36901 ft 521 kts 28°
2026-04-26 15:36 -36.71407 -60.39344 36510 ft 517 kts 27°
2026-04-26 15:36 -36.68455 -60.36834 36015 ft 513 kts 27°
2026-04-26 15:36 -36.65521 -60.34342 35513 ft 509 kts 27°
2026-04-26 15:37 -36.62611 -60.31871 35000 ft 507 kts 27°
2026-04-26 15:37 -36.59708 -60.29410 34484 ft 504 kts 27°
2026-04-26 15:37 -36.56825 -60.26967 33983 ft 502 kts 27°
2026-04-26 15:37 -36.53953 -60.24536 33409 ft 499 kts 26°
2026-04-26 15:38 -36.51089 -60.22121 32806 ft 497 kts 26°
2026-04-26 15:38 -36.48233 -60.19725 32275 ft 494 kts 26°
2026-04-26 15:38 -36.45406 -60.17351 31868 ft 489 kts 26°
2026-04-26 15:38 -36.42608 -60.15006 31428 ft 484 kts 26°
2026-04-26 15:39 -36.39829 -60.12677 30936 ft 482 kts 26°
2026-04-26 15:39 -36.37066 -60.10365 30474 ft 479 kts 26°
2026-04-26 15:39 -36.34316 -60.08064 30010 ft 477 kts 26°
2026-04-26 15:39 -36.32489 -60.06538 29651 ft 475 kts 26°
2026-04-26 15:40 -36.28860 -60.03506 28995 ft 470 kts 25°
2026-04-26 15:40 -36.26168 -60.01261 28559 ft 465 kts 25°
2026-04-26 15:40 -36.23500 -59.99037 28117 ft 461 kts 25°
2026-04-26 15:40 -36.21737 -59.97569 27829 ft 458 kts 25°
2026-04-26 15:41 -36.18245 -59.94663 27378 ft 450 kts 25°
2026-04-26 15:41 -36.15659 -59.92513 26946 ft 447 kts 25°
2026-04-26 15:41 -36.13093 -59.90381 26508 ft 445 kts 25°
2026-04-26 15:41 -36.10533 -59.88256 26082 ft 442 kts 24°
2026-04-26 15:42 -36.07992 -59.86148 25669 ft 440 kts 24°
2026-04-26 15:42 -36.05466 -59.84055 25257 ft 437 kts 24°
2026-04-26 15:42 -36.02950 -59.81970 24853 ft 435 kts 24°
2026-04-26 15:42 -36.00445 -59.79899 24454 ft 433 kts 24°
2026-04-26 15:43 -35.97951 -59.77836 24064 ft 431 kts 23°
2026-04-26 15:43 -35.95468 -59.75785 23677 ft 430 kts 23°
2026-04-26 15:43 -35.90529 -59.71707 22819 ft 426 kts 23°
2026-04-26 15:44 -35.88086 -59.69693 22458 ft 422 kts 23°
2026-04-26 15:44 -35.83292 -59.65654 21766 ft 420 kts 31°
2026-04-26 15:44 -35.81348 -59.62966 21711 ft 424 kts 53°
2026-04-26 15:45 -35.78690 -59.56606 21675 ft 424 kts 55°
2026-04-26 15:45 -35.77217 -59.53423 21616 ft 432 kts 54°
2026-04-26 15:46 -35.74179 -59.46980 21572 ft 438 kts 54°
2026-04-26 15:46 -35.72643 -59.43754 21562 ft 438 kts 54°
2026-04-26 15:46 -35.71103 -59.40524 21551 ft 439 kts 53°
2026-04-26 15:46 -35.70073 -59.38368 21546 ft 439 kts 53°
2026-04-26 15:47 -35.68016 -59.34061 21542 ft 439 kts 53°
2026-04-26 15:47 -35.64921 -59.27595 21530 ft 440 kts 53°
2026-04-26 15:47 -35.63369 -59.24360 21528 ft 440 kts 53°
2026-04-26 15:48 -35.61820 -59.21128 21520 ft 441 kts 53°
2026-04-26 15:48 -35.60263 -59.17888 21517 ft 441 kts 52°
2026-04-26 15:48 -35.58706 -59.14647 21513 ft 441 kts 52°
2026-04-26 15:48 -35.57149 -59.11412 21494 ft 441 kts 52°
2026-04-26 15:49 -35.55591 -59.08177 21244 ft 440 kts 52°
2026-04-26 15:49 -35.54035 -59.04948 20843 ft 439 kts 52°
2026-04-26 15:49 -35.52487 -59.01739 20474 ft 436 kts 52°
2026-04-26 15:49 -35.50948 -58.98553 20118 ft 434 kts 52°
2026-04-26 15:50 -35.49418 -58.95390 19757 ft 431 kts 52°
2026-04-26 15:50 -35.47897 -58.92246 19406 ft 428 kts 52°
2026-04-26 15:50 -35.46389 -58.89131 19063 ft 425 kts 52°
2026-04-26 15:50 -35.44885 -58.86030 18723 ft 422 kts 52°
2026-04-26 15:51 -35.43211 -58.83119 17954 ft 417 kts 35°
2026-04-26 15:51 -35.40904 -58.81116 17107 ft 405 kts 19°
2026-04-26 15:51 -35.38477 -58.79274 16285 ft 416 kts 23°
2026-04-26 15:51 -35.36072 -58.77333 15517 ft 412 kts 24°
2026-04-26 15:52 -35.33711 -58.75403 14770 ft 405 kts 25°
2026-04-26 15:52 -35.31397 -58.73499 14065 ft 399 kts 25°
2026-04-26 15:52 -35.29125 -58.71621 13338 ft 392 kts 26°
2026-04-26 15:52 -35.27632 -58.70389 12830 ft 387 kts 26°
2026-04-26 15:53 -35.24717 -58.67983 12183 ft 370 kts 26°
2026-04-26 15:53 -35.22628 -58.66262 11789 ft 356 kts 25°
2026-04-26 15:53 -35.20608 -58.64599 11301 ft 347 kts 25°
2026-04-26 15:53 -35.18624 -58.62962 10671 ft 344 kts 26°
2026-04-26 15:54 -35.16652 -58.61337 10091 ft 340 kts 26°
2026-04-26 15:54 -35.14741 -58.59763 9939 ft 321 kts 26°
2026-04-26 15:54 -35.12953 -58.58290 9970 ft 306 kts 25°
2026-04-26 15:54 -35.11174 -58.56834 9449 ft 313 kts 25°
2026-04-26 15:55 -35.09344 -58.55329 8824 ft 322 kts 26°
2026-04-26 15:55 -35.07498 -58.53809 8547 ft 318 kts 26°
2026-04-26 15:55 -35.05681 -58.52315 8210 ft 316 kts 26°
2026-04-26 15:55 -35.03840 -58.50804 7608 ft 324 kts 27°
2026-04-26 15:56 -35.01953 -58.49252 7009 ft 331 kts 27°
2026-04-26 15:56 -35.00042 -58.47680 6577 ft 332 kts 28°
2026-04-26 15:56 -34.98152 -58.46129 6275 ft 322 kts 28°
2026-04-26 15:56 -34.96341 -58.44645 6012 ft 307 kts 28°
2026-04-26 15:57 -34.94612 -58.43229 5782 ft 294 kts 28°
2026-04-26 15:57 -34.92955 -58.41875 5574 ft 282 kts 27°
2026-04-26 15:57 -34.91354 -58.40566 5337 ft 273 kts 27°
2026-04-26 15:57 -34.90315 -58.39717 5165 ft 268 kts 27°
2026-04-26 15:58 -34.88223 -58.38007 4840 ft 278 kts 28°
2026-04-26 15:58 -34.86611 -58.36689 4594 ft 279 kts 28°
2026-04-26 15:58 -34.85039 -58.35404 4319 ft 275 kts 28°
2026-04-26 15:58 -34.83466 -58.34120 4069 ft 272 kts 28°
2026-04-26 15:59 -34.81913 -58.32851 3916 ft 265 kts 28°
2026-04-26 15:59 -34.80411 -58.31625 3802 ft 257 kts 28°
2026-04-26 15:59 -34.78949 -58.30433 3697 ft 249 kts 28°
2026-04-26 15:59 -34.77530 -58.29277 3568 ft 242 kts 27°
2026-04-26 16:00 -34.76155 -58.28157 3451 ft 234 kts 27°
2026-04-26 16:00 -34.74828 -58.27075 3330 ft 226 kts 27°
2026-04-26 16:00 -34.73534 -58.26021 3207 ft 223 kts 27°
2026-04-26 16:00 -34.72246 -58.24972 3095 ft 223 kts 27°
2026-04-26 16:01 -34.70868 -58.24276 2922 ft 209 kts 359°
2026-04-26 16:01 -34.69435 -58.24109 2762 ft 207 kts 355°
2026-04-26 16:01 -34.68006 -58.23981 2628 ft 202 kts 355°
2026-04-26 16:01 -34.66670 -58.23999 2538 ft 179 kts 338°
2026-04-26 16:02 -34.65689 -58.24623 2345 ft 148 kts 311°
2026-04-26 16:02 -34.64991 -58.25474 2226 ft 139 kts 301°
2026-04-26 16:02 -34.64405 -58.26393 2133 ft 137 kts 298°
2026-04-26 16:02 -34.64035 -58.27021 2075 ft 138 kts 298°
2026-04-26 16:03 -34.63306 -58.28300 1964 ft 139 kts 298°
2026-04-26 16:03 -34.62763 -58.29270 1886 ft 139 kts 297°
2026-04-26 16:03 -34.62224 -58.30238 1838 ft 138 kts 297°
2026-04-26 16:03 -34.61695 -58.31189 1742 ft 136 kts 297°
2026-04-26 16:04 -34.61167 -58.32144 1647 ft 136 kts 297°
2026-04-26 16:04 -34.60647 -58.33083 1504 ft 133 kts 297°
2026-04-26 16:04 -34.60135 -58.34007 1374 ft 131 kts 297°
2026-04-26 16:04 -34.59626 -58.34924 1185 ft 131 kts 297°
2026-04-26 16:05 -34.59119 -58.35839 994 ft 132 kts 297°
2026-04-26 16:05 -34.58602 -58.36769 838 ft 135 kts 298°
2026-04-26 16:05 -34.58079 -58.37714 619 ft 135 kts 299°
2026-04-26 16:05 -34.57557 -58.38667 370 ft 138 kts 303°
2026-04-26 16:06 -34.57007 -58.39639 151 ft 141 kts 300°
2026-04-26 16:06 -34.56457 -58.40622 48 ft 139 kts 300°
2026-04-26 16:06 -34.55985 -58.41478 27 ft 95 kts 304°
2026-04-26 16:06 -34.55762 -58.41874 27 ft 15 kts 306°
2026-04-26 16:07 -34.55706 -58.41914 28 ft 9 kts 15°
2026-04-26 16:07 -34.55676 -58.41860 28 ft 7 kts 109°
2026-04-26 16:07 -34.55711 -58.41802 28 ft 10 kts 127°
2026-04-26 16:07 -34.55747 -58.41733 28 ft 9 kts 116°
2026-04-26 16:08 -34.55773 -58.41667 28 ft 7 kts 115°
2026-04-26 16:08 -34.55797 -58.41603 28 ft 10 kts 115°
2026-04-26 16:08 -34.55827 -58.41535 28 ft 7 kts 118°
2026-04-26 16:08 -34.55854 -58.41469 28 ft 10 kts 117°
2026-04-26 16:09 -34.55888 -58.41388 28 ft 11 kts 117°
2026-04-26 16:09 -34.55906 -58.41325 28 ft 2 kts 77°
2026-04-26 16:09 -34.55891 -58.41301 28 ft 5 kts 34°
2026-04-26 16:09 -34.55851 -58.41283 28 ft 7 kts 356°
2026-04-26 16:10 -34.55812 -58.41331 28 ft 9 kts 302°
2026-04-26 16:10 -34.55775 -58.41398 28 ft 8 kts 304°
2026-04-26 16:10 -34.55752 -58.41438 28 ft 6 kts 302°
2026-04-26 16:10 -34.55727 -58.41457 28 ft 4 kts 13°
2026-04-26 16:11 -34.55715 -58.41452 28 ft 2 kts 21°
2026-04-26 16:11 -34.55705 -58.41447 28 ft 0 kts 19°
2026-04-26 16:11 -34.55701 -58.41446 28 ft 0 kts 19°
2026-04-26 16:11 -34.55701 -58.41445 28 ft 0 kts 19°